User: anonymous   Login
Location: Unspecified
(0.0000°N, 0.0000°E)
Time: 01:34:08
(UTC+00:00)
Language:

CLOUDSAT - Orbit

View from above orbital plane
View from above orbital plane
View from above satellite
View from above satellite

Ground track
Ground track

The orbit data is extracted from the following two-line orbital elements,

1 29107U 06016A   15241.16647913  .00000206  00000-0  55725-4 0  9998
2 29107 098.1977 183.6106 0000770 065.1980 294.9299 14.57120167496603
Epoch (UTC): 29 August 2015 03:59:43
Eccentricity: 0.0000770
inclination: 98.1977°
perigee height: 702 km
apogee height: 703 km
right ascension of ascending node: 183.6106°
argument of perigee: 65.1980°
revolutions per day: 14.57120167
mean anomaly at epoch: 294.9299°
orbit number at epoch: 49660

The dashed part of the orbit path shows where the satellite is in the earth's shadow,  

DLR